Estación Meteorológica de la Universidad de Murcia
Estación Meteorológica de la Universidad de Murcia
Universidad de Murcia
 

Velocidad y dirección del vientoVelocidad y dirección del viento

 

Velocidad: 27 km/h a las 16:23:00 del día 18/09/2021
Dirección del viento: 94,4 º E Rosa de los vientos a las 16:23:00 del día 18/09/2021

Nota:
N (entre 337,6º y 22,5º), NE (entre 22,6º y 67,5º), E (entre 67,6º y 112,5º), SE (entre 112,6º y 157,5º), S (entre 157,6º y 202,5º), SW (entre 202,6º y 247,5º), W (entre 247,5º y 292,5º) y NW (entre 292,6º y 337,5º)

||Velocidad últimos meses|| ----||Dirección del viento||


Velocidad

  • 1 - 27 km/h del día 18/09/2021
  • 2 - 29,16 km/h del día 17/09/2021
  • 3 - 31,32 km/h del día 16/09/2021
  • 4 - 39,96 km/h del día 15/09/2021
  • 5 - 30,6 km/h del día 14/09/2021
  • 6 - 16,92 km/h del día 13/09/2021
  • 7 - 34,2 km/h del día 12/09/2021
  • 8 - 30,6 km/h del día 11/09/2021
  • 9 - 37,08 km/h del día 10/09/2021
  • 10 - 30,24 km/h del día 09/09/2021
  • 11 - 19,8 km/h del día 08/09/2021
  • 12 - 32,04 km/h del día 07/09/2021
  • 13 - 27,36 km/h del día 06/09/2021
  • 14 - 28,44 km/h del día 05/09/2021
  • 15 - 34,2 km/h del día 04/09/2021
  • 16 - 28,44 km/h del día 03/09/2021
  • 17 - 30,6 km/h del día 02/09/2021
  • 18 - 32,76 km/h del día 01/09/2021
  • 19 - 35,64 km/h del día 31/08/2021
  • 20 - 30,24 km/h del día 30/08/2021
  • 21 - 37,08 km/h del día 29/08/2021
  • 22 - 36 km/h del día 28/08/2021
  • 23 - 29,52 km/h del día 27/08/2021
  • 24 - 27,36 km/h del día 26/08/2021
  • 25 - 32,76 km/h del día 25/08/2021
  • 26 - 32,76 km/h del día 24/08/2021
  • 27 - 38,52 km/h del día 23/08/2021
  • 28 - 38,88 km/h del día 22/08/2021
  • 29 - 30,24 km/h del día 21/08/2021
  • 30 - 29,52 km/h del día 20/08/2021
  • 31 - 28,8 km/h del día 19/08/2021
  • 32 - 28,44 km/h del día 18/08/2021
  • 33 - 33,48 km/h del día 17/08/2021
  • 34 - 44,64 km/h del día 16/08/2021
  • 35 - 29,88 km/h del día 15/08/2021
  • 36 - 34,2 km/h del día 14/08/2021
  • 37 - 31,68 km/h del día 13/08/2021
  • 38 - 20,52 km/h del día 12/08/2021
  • 39 - 29,16 km/h del día 11/08/2021
  • 40 - 23,76 km/h del día 10/08/2021
  • 41 - 35,28 km/h del día 09/08/2021
  • 42 - 41,4 km/h del día 08/08/2021
  • 43 - 32,4 km/h del día 07/08/2021
  • 44 - 39,24 km/h del día 06/08/2021
  • 45 - 27 km/h del día 05/08/2021
  • 46 - 37,08 km/h del día 04/08/2021
  • 47 - 33,84 km/h del día 03/08/2021
  • 48 - 37,44 km/h del día 02/08/2021
  • 49 - 45,72 km/h del día 01/08/2021
  • 50 - 32,4 km/h del día 31/07/2021
  • 51 - 24,84 km/h del día 30/07/2021
  • 52 - 30,6 km/h del día 29/07/2021
  • 53 - 34,2 km/h del día 28/07/2021
  • 54 - 27 km/h del día 27/07/2021
  • 55 - 41,76 km/h del día 26/07/2021
  • 56 - 35,64 km/h del día 25/07/2021
  • 57 - 33,84 km/h del día 24/07/2021
  • 58 - 30,24 km/h del día 23/07/2021
  • 59 - 36 km/h del día 22/07/2021
  • 60 - 34,56 km/h del día 21/07/2021

||Volver al inicio de la página||


Dirección del viento

  • 1 - 962.15 º N del día 31/08/2021
  • 2 - 1661.06 º 1661,06 del día 31/07/2021
  • 3 - 1441.19 º 1441,19 del día 30/08/2021
  • 4 - 1706.33 º 1706,33 del día 30/07/2021
  • 5 - 1438.59 º 1438,59 del día 29/08/2021
  • 6 - 1388.26 º 1388,26 del día 29/07/2021
  • 7 - 1720.97 º 1720,97 del día 28/08/2021
  • 8 - 1259.21 º 1259,21 del día 28/07/2021
  • 9 - 1836.47 º 1836,47 del día 27/08/2021
  • 10 - 1737.31 º 1737,31 del día 27/07/2021
  • 11 - 1513.92 º 1513,92 del día 26/08/2021
  • 12 - 1509.44 º 1509,44 del día 26/07/2021
  • 13 - 1392.89 º 1392,89 del día 25/08/2021
  • 14 - 1395.17 º 1395,17 del día 25/07/2021
  • 15 - 1475.56 º 1475,56 del día 24/08/2021
  • 16 - 1481.38 º 1481,38 del día 24/07/2021
  • 17 - 1439.37 º 1439,37 del día 23/08/2021
  • 18 - 1484.28 º 1484,28 del día 23/07/2021
  • 19 - 1450.03 º 1450,03 del día 22/08/2021
  • 20 - 1538.72 º 1538,72 del día 22/07/2021
  • 21 - 1338.16 º 1338,16 del día 21/08/2021
  • 22 - 1248.54 º 1248,54 del día 21/07/2021
  • 23 - 1810.92 º 1810,92 del día 20/09/2021
  • 24 - 1351.76 º 1351,76 del día 20/08/2021
  • 25 - 910.55 º N del día 20/07/2021
  • 26 - 1443.88 º 1443,88 del día 19/09/2021
  • 27 - 1092.92 º 1092,92 del día 19/08/2021
  • 28 - 1961 º 1961 del día 18/09/2021
  • 29 - 1035.73 º 1035,73 del día 18/08/2021
  • 30 - 1751.69 º 1751,69 del día 17/09/2021
  • 31 - 976.5 º N del día 17/08/2021
  • 32 - 1844.41 º 1844,41 del día 16/09/2021
  • 33 - 1500.56 º 1500,56 del día 16/08/2021
  • 34 - 1946.84 º 1946,84 del día 15/09/2021
  • 35 - 1750.29 º 1750,29 del día 15/08/2021
  • 36 - 1672.86 º 1672,86 del día 14/09/2021
  • 37 - 1186.93 º 1186,93 del día 14/08/2021
  • 38 - 1672.93 º 1672,93 del día 13/09/2021
  • 39 - 1263.82 º 1263,82 del día 13/08/2021
  • 40 - 1357.04 º 1357,04 del día 12/09/2021
  • 41 - 1606.52 º 1606,52 del día 12/08/2021
  • 42 - 1548.58 º 1548,58 del día 11/09/2021
  • 43 - 1322.71 º 1322,71 del día 11/08/2021
  • 44 - 2064.87 º 2064,87 del día 10/09/2021
  • 45 - 1648.43 º 1648,43 del día 10/08/2021
  • 46 - 1938.29 º 1938,29 del día 09/09/2021
  • 47 - 952.96 º N del día 09/08/2021
  • 48 - 1777.28 º 1777,28 del día 08/09/2021
  • 49 - 1058.86 º 1058,86 del día 08/08/2021
  • 50 - 1518.42 º 1518,42 del día 07/09/2021
  • 51 - 1597.87 º 1597,87 del día 07/08/2021
  • 52 - 1418.25 º 1418,25 del día 06/09/2021
  • 53 - 1562.99 º 1562,99 del día 06/08/2021
  • 54 - 1390.11 º 1390,11 del día 05/09/2021
  • 55 - 1128.07 º 1128,07 del día 05/08/2021
  • 56 - 1223.72 º 1223,72 del día 04/09/2021
  • 57 - 1934.29 º 1934,29 del día 04/08/2021
  • 58 - 1488.77 º 1488,77 del día 03/09/2021
  • 59 - 1583.49 º 1583,49 del día 03/08/2021
  • 60 - 1554.17 º 1554,17 del día 02/09/2021
  • 61 - 934.54 º N del día 02/08/2021
  • 62 - 1328.43 º 1328,43 del día 01/09/2021
  • 63 - 1506.9 º 1506,9 del día 01/08/2021

|| Temperatura Ambiente|| Humedad relativa|| Precipitación|| Radiación Solar Global y PAR|| Temperatura y humedad del suelo|| Presión atmosférica|| Más información|| Volver a la página principal|| Volver al inicio de la página||


Estación Meteorológica de la Universidad de Murcia
http://estacion.um.es/
Informacion actualizada a: 20/09/2021 a las 21:46:00